Change the Weather History Date:

Sunday, January 20, 2013

  Actual Average Record
Temperature  
Mean Temperature 4 °F -8 °F  
Max Temperature 12 °F 0 °F 45 °F (1961)
Min Temperature -4 °F -18 °F -65 °F (1906)
Degree Days  
Heating Degree Days 61 74  
Month to date heating degree days 1221 1464  
Since 1 July heating degree days 8245 7736  
Cooling Degree Days 0 0  
Month to date cooling degree days 0 0  
Year to date cooling degree days 0 0  
Moisture  
Dew Point 4 °F    
Average Humidity 81    
Maximum Humidity 92    
Minimum Humidity 60    
Precipitation  
Precipitation 0.18 in 0.01 in 1.33 in (1937)
Month to date precipitation 0.68 0.39  
Year to date precipitation 0.68 0.39  
Snow  
Snow 2.50 in 0.30 in 10.50 in (1937)
Month to date snowfall 7.9 7.0  
Since 1 July snowfall 37.8 44.9  
Snow Depth 19.00 in    
Sea Level Pressure  
Sea Level Pressure 30.08 in    
Wind  
Wind Speed 6 mph (NNE)    
Max Wind Speed 10 mph    
Max Gust Speed -    
Visibility 5 miles    
Events Snow    
T = Trace of Precipitation, MM = Missing Value Source: NWS Daily Summary

Daily Weather History Graph

Daily Weather History Graph

Search for Another Location

Airport or City:

Trip Planner

Search our weather history database for the weather conditions in past years. The results will help you decide how hot, cold, wet, or windy it might be!

Date:

Astronomy

Jan. 20, 2013 Rise Set
Actual Time 10:12 AM AKST 3:54 PM AKST
Civil Twilight 9:05 AM AKST 5:00 PM AKST
Nautical Twilight 8:01 AM AKST 6:05 PM AKST
Astronomical Twilight 7:02 AM AKST 7:03 PM AKST
Moon 11:07 AM AKST (1/20) 4:42 AM AKST (1/20)
Length of Visible Light 7h 55m
Length of Day
5h 42m
Waxing Gibbous, 67% of the Moon is Illuminated
Jan 20
Waxing Gibbous
Jan 26
Full
Feb 3
Last Quarter
Feb 9
New
Feb 17
First Quarter

Hourly Weather History & Observations

Time (AKST) Temp. Windchill Dew Point Humidity Pressure Visibility Wind Dir Wind Speed Gust Speed Precip Events Conditions
12:53 AM -2.0 °F -16.6 °F -8.0 °F 76% 30.13 in 10.0 mi NNE 8.1 mph - N/A   Scattered Clouds
1:53 AM -0.0 °F -9.9 °F -6.0 °F 76% 30.12 in 10.0 mi North 4.6 mph - N/A   Overcast
3:53 AM 7.0 °F -1.7 °F -2.9 °F 64% 30.11 in 10.0 mi North 4.6 mph - N/A   Overcast
4:53 AM 6.1 °F -6.8 °F -0.9 °F 73% 30.09 in 10.0 mi NE 8.1 mph - N/A   Overcast
5:49 AM 6.8 °F -4.8 °F 1.4 °F 79% 30.04 in 2.5 mi NNE 6.9 mph - N/A Snow Light Snow
5:53 AM 6.1 °F -5.6 °F 1.0 °F 80% 30.09 in 2.0 mi NE 6.9 mph - N/A Snow Light Snow
6:03 AM 6.1 °F -5.6 °F 1.9 °F 83% 30.03 in 1.0 mi NNE 6.9 mph - N/A Snow Light Snow
6:15 AM 6.1 °F -4.3 °F 1.9 °F 83% 30.04 in 0.8 mi NNE 5.8 mph - N/A Snow Light Snow
6:28 AM 7.0 °F - 3.0 °F 84% 30.05 in 1.0 mi Calm Calm - N/A Snow Light Snow
6:48 AM 8.6 °F -3.7 °F 3.2 °F 79% 30.04 in 2.0 mi NNE 8.1 mph - N/A Snow Light Snow
6:53 AM 8.1 °F -4.3 °F 3.9 °F 83% 30.08 in 3.0 mi NE 8.1 mph - N/A Snow Light Snow
7:29 AM 8.1 °F -4.3 °F 3.9 °F 83% 30.03 in 5.0 mi NE 8.1 mph - N/A Snow Light Snow
7:53 AM 8.1 °F -6.2 °F 3.0 °F 80% 30.07 in 5.0 mi NE 10.4 mph - N/A Snow Light Snow
8:53 AM 5.0 °F -9.1 °F 1.0 °F 84% 30.07 in 10.0 mi NE 9.2 mph - N/A   Overcast
9:53 AM 6.1 °F -8.7 °F 1.0 °F 80% 30.07 in 10.0 mi NNE 10.4 mph - N/A   Overcast
10:53 AM 9.0 °F -0.9 °F 3.9 °F 80% 30.09 in 10.0 mi North 5.8 mph - N/A   Overcast
11:53 AM 9.0 °F 0.6 °F 5.0 °F 84% 30.09 in 10.0 mi NNE 4.6 mph - N/A   Overcast
12:53 PM 10.9 °F - 5.0 °F 77% 30.09 in 10.0 mi Calm Calm - N/A   Overcast
1:53 PM 10.9 °F - 6.1 °F 81% 30.09 in 6.0 mi Calm Calm - N/A Snow Light Snow
2:53 PM 10.9 °F - 6.1 °F 81% 30.09 in 5.0 mi Calm Calm - N/A Snow Light Snow
3:53 PM 12.0 °F - 7.0 °F 80% 30.09 in 4.0 mi Calm Calm - N/A Snow Light Snow
4:29 PM 12.0 °F 2.7 °F 8.1 °F 84% 30.05 in 2.5 mi NNE 5.8 mph - N/A Snow Light Snow
4:53 PM 10.9 °F 2.9 °F 8.1 °F 88% 30.10 in 2.0 mi NE 4.6 mph - N/A Snow Light Snow
5:01 PM 10.9 °F 0.2 °F 8.1 °F 88% 30.05 in 1.8 mi NE 6.9 mph - N/A Snow Light Snow
5:49 PM 10.4 °F 4.0 °F 8.6 °F 92% 30.05 in 1.5 mi NE 3.5 mph - N/A Snow Light Snow
5:53 PM 10.9 °F - 8.1 °F 88% 30.09 in 1.5 mi Calm Calm - N/A Snow Light Snow
6:53 PM 10.9 °F - 8.1 °F 88% 30.09 in 1.2 mi Calm Calm - N/A Snow Light Snow
7:53 PM 10.9 °F - 8.1 °F 88% 30.09 in 1.2 mi Calm Calm - N/A Snow Light Snow
8:53 PM 10.9 °F - 8.1 °F 88% 30.10 in 1.2 mi Calm Calm - N/A Snow Light Snow
9:53 PM 10.9 °F 1.4 °F 7.0 °F 84% 30.11 in 1.2 mi North 5.8 mph - N/A Snow Light Snow
10:03 PM 10.9 °F 2.9 °F 7.0 °F 84% 30.07 in 1.5 mi North 4.6 mph - N/A Snow Light Snow
10:21 PM 10.9 °F 2.9 °F 7.0 °F 84% 30.07 in 3.0 mi North 4.6 mph - N/A Snow Light Snow
10:33 PM 10.9 °F 2.9 °F 7.0 °F 84% 30.07 in 2.5 mi North 4.6 mph - N/A Snow Light Snow
10:53 PM 10.9 °F 2.9 °F 7.0 °F 84% 30.12 in 2.0 mi North 4.6 mph - N/A Snow Light Snow
11:53 PM 10.9 °F 0.2 °F 7.0 °F 84% 30.12 in 1.8 mi North 6.9 mph - N/A Snow Light Snow